Change the Weather History Date:

Sunday, May 5, 2013

  Actual Average Record
Temperature  
Mean Temperature 46 °F -  
Max Temperature 65 °F 73 °F 79 °F (2014)
Min Temperature 27 °F 43 °F 27 °F (2013)
Degree Days  
Heating Degree Days 19    
Moisture  
Dew Point 22 °F    
Average Humidity 44    
Maximum Humidity 81    
Minimum Humidity 15    
Precipitation  
Precipitation 0.00 in - - ()
Sea Level Pressure  
Sea Level Pressure 30.19 in    
Wind  
Wind Speed 5 mph (NNE)    
Max Wind Speed 10 mph    
Max Gust Speed -    
Visibility 10 miles    
Events      
Averages and records for this station are not official NWS values.
T = Trace of Precipitation, MM = Missing Value Source: NWS Daily Summary

Daily Weather History Graph

Daily Weather History Graph

Search for Another Location

Airport or City:

Trip Planner

Search our weather history database for the weather conditions in past years. The results will help you decide how hot, cold, wet, or windy it might be!

Date:

Astronomy

May. 05, 2013 Rise Set
Actual Time 6:42 AM CDT 8:45 PM CDT
Civil Twilight 6:13 AM CDT 9:15 PM CDT
Nautical Twilight 5:36 AM CDT 9:51 PM CDT
Astronomical Twilight 4:57 AM CDT 10:31 PM CDT
Moon 4:13 AM CDT (5/5) 4:47 PM CDT (5/5)
Length of Visible Light 15h 02m
Length of Day
14h 03m
Waning Crescent, 18% of the Moon is Illuminated
May 5
Waning Crescent
May 9
New
May 17
First Quarter
May 24
Full
May 31
Last Quarter

Hourly Weather History & Observations

Time (CDT) Temp. Windchill Dew Point Humidity Pressure Visibility Wind Dir Wind Speed Gust Speed Precip Events Conditions
12:15 AM 37.0 °F 34.5 °F 21.0 °F 52% 30.22 in 10.0 mi ENE 3.5 mph - N/A   Clear
12:35 AM 39.4 °F - 19.9 °F 46% 30.22 in 10.0 mi Calm Calm - N/A   Clear
12:55 AM 39.6 °F - 20.7 °F 47% 30.23 in 10.0 mi Calm Calm - N/A   Clear
1:15 AM 38.3 °F - 20.5 °F 49% 30.24 in 10.0 mi Calm Calm - N/A   Clear
1:35 AM 34.7 °F 30.6 °F 22.8 °F 62% 30.24 in 10.0 mi SW 4.6 mph - N/A   Clear
1:55 AM 34.2 °F 30.0 °F 22.1 °F 61% 30.24 in 10.0 mi WSW 4.6 mph - N/A   Clear
2:15 AM 33.6 °F 29.4 °F 22.6 °F 64% 30.24 in 10.0 mi WSW 4.6 mph - N/A   Clear
2:35 AM 33.1 °F 26.9 °F 22.5 °F 65% 30.23 in 10.0 mi SW 6.9 mph - N/A   Clear
2:55 AM 31.5 °F 24.9 °F 23.2 °F 71% 30.23 in 10.0 mi WSW 6.9 mph - N/A   Clear
3:15 AM 31.8 °F 26.2 °F 23.0 °F 70% 30.23 in 10.0 mi WSW 5.8 mph - N/A   Clear
3:35 AM 31.1 °F 24.5 °F 23.2 °F 72% 30.22 in 10.0 mi WSW 6.9 mph - N/A   Clear
3:55 AM 30.7 °F 23.3 °F 23.4 °F 74% 30.23 in 10.0 mi WSW 8.1 mph - N/A   Clear
4:15 AM 30.4 °F 22.9 °F 23.5 °F 76% 30.22 in 10.0 mi SW 8.1 mph - N/A   Clear
4:35 AM 30.2 °F 23.4 °F 23.5 °F 76% 30.22 in 10.0 mi SW 6.9 mph - N/A   Clear
4:55 AM 29.1 °F 22.1 °F 23.0 °F 78% 30.23 in 10.0 mi WSW 6.9 mph - N/A   Clear
5:15 AM 28.9 °F 21.9 °F 23.2 °F 79% 30.23 in 10.0 mi SW 6.9 mph - N/A   Clear
5:55 AM 28.2 °F 22.0 °F 23.0 °F 81% 30.23 in 10.0 mi SW 5.8 mph - N/A   Clear
6:15 AM 28.2 °F 21.0 °F 23.0 °F 81% 30.24 in 10.0 mi WSW 6.9 mph - N/A   Clear
6:35 AM 27.9 °F 20.6 °F 22.8 °F 81% 30.23 in 10.0 mi SW 6.9 mph - N/A   Clear
6:55 AM 28.6 °F 24.8 °F 23.0 °F 80% 30.23 in 10.0 mi SW 3.5 mph - N/A   Clear
7:15 AM 29.1 °F 24.1 °F 23.4 °F 79% 30.24 in 10.0 mi SW 4.6 mph - N/A   Clear
7:35 AM 29.8 °F 24.9 °F 24.8 °F 81% 30.24 in 10.0 mi WSW 4.6 mph - N/A   Clear
7:55 AM 31.6 °F 27.0 °F 25.7 °F 79% 30.24 in 10.0 mi SW 4.6 mph - N/A   Clear
8:15 AM 33.8 °F - 26.8 °F 75% 30.24 in 10.0 mi Calm Calm - N/A   Clear
8:35 AM 36.0 °F - 25.9 °F 67% 30.25 in 10.0 mi Calm Calm - N/A   Clear
8:55 AM 39.2 °F - 27.1 °F 62% 30.25 in 10.0 mi Calm Calm - N/A   Clear
9:15 AM 41.9 °F - 27.3 °F 56% 30.25 in 10.0 mi Calm Calm - N/A   Clear
9:35 AM 44.6 °F 43.1 °F 27.3 °F 51% 30.25 in 10.0 mi NW 3.5 mph - N/A   Clear
9:55 AM 47.7 °F - 26.2 °F 43% 30.25 in 10.0 mi Calm Calm - N/A   Clear
10:15 AM 51.3 °F - 22.5 °F 32% 30.25 in 10.0 mi North 4.6 mph - N/A   Clear
10:35 AM 52.2 °F - 19.6 °F 28% 30.24 in 10.0 mi NNE 3.5 mph - N/A   Clear
10:55 AM 53.2 °F - 20.3 °F 28% 30.24 in 10.0 mi North 5.8 mph - N/A   Clear
11:15 AM 54.3 °F - 18.5 °F 25% 30.24 in 10.0 mi NE 8.1 mph - N/A   Clear
11:35 AM 55.8 °F - 16.9 °F 22% 30.24 in 10.0 mi NE 8.1 mph - N/A   Clear
11:55 AM 55.6 °F - 19.0 °F 24% 30.24 in 10.0 mi North 8.1 mph - N/A   Clear
12:15 PM 55.9 °F - 18.7 °F 23% 30.23 in 10.0 mi NNE 9.2 mph - N/A   Clear
12:35 PM 57.9 °F - 18.3 °F 21% 30.23 in 10.0 mi NW 4.6 mph - N/A   Clear
12:55 PM 58.1 °F - 17.6 °F 21% 30.22 in 10.0 mi NNW 3.5 mph - N/A   Clear
1:15 PM 59.0 °F - 17.8 °F 20% 30.21 in 10.0 mi ENE 5.8 mph - N/A   Clear
1:35 PM 60.4 °F - 17.6 °F 19% 30.20 in 10.0 mi North 4.6 mph - N/A   Clear
1:55 PM 61.2 °F - 16.9 °F 18% 30.19 in 10.0 mi NE 10.4 mph - N/A   Clear
2:15 PM 61.7 °F - 17.6 °F 18% 30.19 in 10.0 mi NW 3.5 mph - N/A   Clear
2:35 PM 62.8 °F - 16.0 °F 16% 30.18 in 10.0 mi ENE 4.6 mph - N/A   Clear
3:15 PM 63.7 °F - 17.1 °F 17% 30.16 in 10.0 mi NE 4.6 mph - N/A   Clear
3:35 PM 63.7 °F - 18.5 °F 18% 30.15 in 10.0 mi North 6.9 mph - N/A   Clear
3:55 PM 64.2 °F - 18.0 °F 17% 30.14 in 10.0 mi NNE 5.8 mph - N/A   Clear
4:15 PM 63.9 °F - 17.8 °F 17% 30.14 in 10.0 mi Calm Calm - N/A   Clear
4:35 PM 65.5 °F - 17.8 °F 16% 30.13 in 10.0 mi North 8.1 mph - N/A   Clear
4:55 PM 65.1 °F - 17.6 °F 16% 30.13 in 10.0 mi NE 9.2 mph - N/A   Clear
5:15 PM 65.5 °F - 16.5 °F 15% 30.12 in 10.0 mi East 8.1 mph - N/A   Clear
5:35 PM 65.5 °F - 17.1 °F 16% 30.12 in 10.0 mi ENE 4.6 mph - N/A   Clear
5:55 PM 64.0 °F - 16.9 °F 16% 30.12 in 10.0 mi East 3.5 mph - N/A   Clear
6:15 PM 64.4 °F - 17.1 °F 16% 30.12 in 10.0 mi NNE 5.8 mph - N/A   Clear
6:35 PM 65.1 °F - 17.1 °F 16% 30.12 in 10.0 mi NNE 4.6 mph - N/A   Clear
6:55 PM 65.1 °F - 17.6 °F 16% 30.12 in 10.0 mi NNE 4.6 mph - N/A   Clear
7:15 PM 64.0 °F - 17.6 °F 17% 30.12 in 10.0 mi NNE 4.6 mph - N/A   Clear
7:35 PM 63.9 °F - 19.4 °F 18% 30.11 in 10.0 mi NE 5.8 mph - N/A   Clear
7:55 PM 61.9 °F - 21.0 °F 21% 30.12 in 10.0 mi NE 6.9 mph - N/A   Clear
8:15 PM 59.2 °F - 23.9 °F 26% 30.12 in 10.0 mi ENE 5.8 mph - N/A   Clear
8:35 PM 56.7 °F - 27.5 °F 33% 30.12 in 10.0 mi ENE 4.6 mph - N/A   Clear
8:55 PM 55.0 °F - 27.9 °F 35% 30.12 in 10.0 mi East 5.8 mph - N/A   Clear
9:15 PM 51.8 °F - 28.4 °F 41% 30.13 in 10.0 mi East 5.8 mph - N/A   Clear
9:35 PM 50.0 °F - 30.9 °F 48% 30.13 in 10.0 mi East 6.9 mph - N/A   Clear
9:55 PM 48.2 °F - 30.9 °F 51% 30.13 in 10.0 mi East 5.8 mph - N/A   Clear
10:15 PM 48.2 °F - 30.7 °F 51% 30.14 in 10.0 mi ESE 6.9 mph - N/A   Clear
10:35 PM 47.3 °F - 30.7 °F 53% 30.14 in 10.0 mi ESE 6.9 mph - N/A   Clear
10:55 PM 46.4 °F 41.9 °F 29.3 °F 51% 30.14 in 10.0 mi SE 9.2 mph - N/A   Clear
11:15 PM 46.0 °F 41.9 °F 28.8 °F 51% 30.14 in 10.0 mi SE 8.1 mph - N/A   Clear
11:35 PM 45.0 °F 40.1 °F 28.4 °F 52% 30.14 in 10.0 mi SE 9.2 mph - N/A   Clear
11:55 PM 45.0 °F 40.1 °F 27.7 °F 51% 30.14 in 10.0 mi SE 9.2 mph - N/A   Clear